Погода в Юсте

Погода в Юсте : погода сейчас, прогноз погоды и архив. Всё, что Вы хотите узнать о погоде в Юсте!

Хотите узнать прогноз погоды в Юсте? Тогда Вам сюда: Погода в Юсте

Поиск расширенной информации на нашем сайте:

Другие новости

Новости СМИ2

Главная страница сайта

Новости сайта

02.10.2013

Напоминаем, что на нашем новом сайте вы можете получить высокодетализированные прогнозы погоды по пунктам России, СНГ и мира (включающие важные для авиации метеовеличины, такие как направление и скорость ветра, видимость, явления погоды, количество и форма облачности, нижняя и верхняя граница облачности), а также ознакомиться с разнообразными материалами по авиационной метеорологии и подборкой полезных ссылок на эту тему.

Сайт Метеоцентр.Азия посвящён разработке технологий оптимизации авиаметеорологического обслуживания, включая проектирование и перспективное создание нескольких автоматизированных авиаметеорологических систем:
- система выпуска высокодетальных прогностических карт явлений погоды для нижнего воздушного пространства по России и ближнему зарубежью;
- система верификации прогнозов TAF (выпускаемых синоптиками официальных АМСГ РФ и ближнего зарубежья) и AUTOTAF (выпускаемых сайтом Метеоцентр.Азия) - выявление ошибок, онлайн-сопоставление с фактической погодой METAR, автоматическое внесение коррективов в прогнозы при резком отклонении фактической погоды от прогноза, подсчёт оправдываемости прогнозов по элементам и в целом;
- система обработки, анализа и отображения авиаметеорологической информации для применения провайдерами метеорологической информации.

Рекомендуем: Мебель для гостиной мебель в гостиную.

Погода в Юсте - сегодня

Время (UTC), дата Ветер
(°,м/с) 
Видим.   Явления Облачность Т
(°С)
Тd
(°С)
f(%) Тe
(°С)
Pmin
(гПа)
dP
(гПа)
Po
(мм)
O2
(г/м3)
Тmin Tmax R s Состояние
почвы
09 25.06.17 260 (З) 20000 м  {дождь}  9/9 600 м 
[Sc]
+17.6 +11 65 +21  1013.9  1.2  760  286           
12 25.06.17 270 (З) 20000 м  {дождь}  3/0 средняя, верхняя 
[Ac trans|Ci fib]
+23 +8.1 38 +23  1013.6  -0.2  760  281           
15 25.06.17 360 (С) 20000 м    3/0 средняя 
[Ac trans]
+24.7 +5.3 29 +25  1014.1  0.4  760  280    +25     
18 25.06.17 260 (З) 10 км    ясно 
+18.8 +8.8 52 +20  1015.7  1.7  762  286           
21 25.06.17 260 (З) 10 км    ясно 
+15.8 +9.7 67 +16  1016.9  1.1  762  289           
00 26.06.17 240 (ЮЗ) 10 км    ясно 
+14.4 +10.4 77 +16  1017.3  0.4  763  290           
03 26.06.17 240 (ЮЗ) 20000 м    3/3 600 м 
[Sc]
+18.7 +11.5 63 +22  1017.5  0.2  763  286  +14        сухая 
06 26.06.17 220 (ЮЗ) 20000 м    3/0 средняя 
[Ac trans]
+25.4 +7.7 32 +25  1018  0.5  763  280           
09 26.06.17 230 (ЮЗ) 20000 м    3/0 верхняя 
[Ci sp]
+28.4 +6.1 24 +28  1017.4  -0.5  763  277           
12 26.06.17 200 (Ю) 20000 м    8/0 верхняя 
[Ci fib]
+30.4 +6.4 22 +30  1016.3  -1.1  762  275           
15 26.06.17 220 (ЮЗ) 4{12}  20000 м    5/0 верхняя 
[Ci fib]
+29.8 +6.4 23 +30  1015.8  -0.5  762  276    +30.5       
18 26.06.17 150 (ЮВ) 10 км    3/0 средняя 
[Ac trans]
+24.4 +8.6 37 +24  1016.3  0.4  762  280           
21 26.06.17 190 (Ю) 10 км    ясно 
+20.4 +7.9 44 +20  1016.7  0.4  762  284           
00 27.06.17 190 (Ю) 10 км    ясно 
+16.3 +9.3 63 +17  1016.7  762  288           
03 27.06.17 200 (Ю) 20000 м    ясно 
+19.8 +11.3 58 +24  1016.8  0.2  762  284  +14.8        сухая 
06 27.06.17 190 (Ю) 20000 м    ясно 
+27.5 +5.9 25 +28  1016.7  -0.2  762  278           
09 27.06.17 150 (ЮВ) 4{12}  20000 м    ясно 
+31.1 +4.6 19 +31  1015.2  -1.5  761  275           
12 27.06.17 170 (Ю) 5{11}  20000 м    3/0 верхняя 
[Ci fib]
+31.6 +7.3 22 +32  1013.4  -1.8  760  273           
15 27.06.17 160 (Ю) 20000 м    6/0 верхняя 
[Cs]
+30.4 +7.7 24 +30  1012.6  -0.8  759  274    +32.2       
18 27.06.17 150 (ЮВ) 10 км    3/0 верхняя 
[Cs]
+24.2 +10.6 42 +26  1013.2  0.7  760  279           
21 27.06.17 140 (ЮВ) 10 км    ясно 
+21.1 +13.7 63 +27  1013.4  0.1  760  281           
00 28.06.17 130 (ЮВ) 10 км    3/0 верхняя 
[Cs]
+18.6 +14.8 79 +28  1012.2  -1.2  759  283           
03 28.06.17 180 (Ю) 20000 м    6/0 верхняя 
[Cs]
+22.7 +17.4 72 +35  1012.9  -0.8  759  279  +17        сухая 
06 28.06.17 190 (Ю) 20000 м    3/0 верхняя 
[Ci fib]
+28.5 +13 38 +34  1012.9  759  275           
09 28.06.17 130 (ЮВ) 20000 м    3/0 средняя 
[Ac trans]
+32.6 +10.7 26 +34  1011.7  -1.2  759  271           
Время (UTC), дата Ветер
(°,м/с) 
Видим.   Явления Облачность Т
(°С)
Тd
(°С)
f(%) Тe
(°С)
Pmin
(гПа)
dP
(гПа)
Po
(мм)
O2
(г/м3)
Тmin Tmax R s Состояние
почвы

Для получения пояснительной информации подведите курсор к названию столбца.

ПОГОДА в Юсте - архив

Всё, что Вы хотите узнать о погоде в Юсте - удобно и подробно!

Выберите нужную дату (начиная с 1 января 2015* года) и нажмите кнопку "Найти".
Будут отображены архивные сводки погоды по пункту Юста, начиная с указанной даты.


Отображать данные в формате CSV (для использования в таблицах Excel)


Внимание! Наш архив погоды предназначен исключительно для личного некоммерческого использования в познавательных целях. Если Вам необходимы официальные справки о состоянии погоды (для производственных, юридических, коммерческих и т.п. целей), обращайтесь в органы Росгидромета.

*Примечание: данная дата относится к архиву по метеостанциям СССР (Россия, СНГ, Балтия).
Архив по метеостанциям Зарубежной Европы и Азии (кроме Китая) хранится 10 дней, по другим регионам земного шара (Китай, Африка, Америка, Австралия, Океания) - 1 день.

Юста - район местоположения метеостанции


Название, широта, долгота, высота метеостанции:
Юста 47.1°ш. 46.3°д. 2 м над ур. моря [Российская Федерация]

Дополнительная информация

В oтличие oт бoльшинства пoгoдных сайтoв мы публикуем пoдрoбную метеoинфoрмацию в детальнoм прoфессиoнальнoм фoрмате.

Характеристики температуры и влажнoсти вoздуха измеряются на высoте 2 м в тени вдали oт зданий и деревьев.
Скoрoсть ветра измеряется на высoте 10 м (на урoвне рoста челoвека скoрoсть ветра ниже в 1.5-2 раза). Если метеoстанция нахoдится в гoрoде или в лесу, тo скoрoсть ветра занижена на 2-4 м/с пo сравнению с oткрытым местoм. Скoрoсть ветра над акватoриями крупных рек и oзёр, а также на вершинах хoлмoв на 2-5 м/с выше, чем в oбычных услoвиях.
Атмoсфернoе давление в разных тoчках местнoсти мoжет значительнo oтличаться oт давления на метеoстанции, в зависимoсти oт услoвий рельефа (при пoдъёме на 10 м давление пoнижается примернo на 1 мм рт.ст.).